Regional Weather Roundup
Issued by NWS Mt. Holly, NJ

Home | Current Version | Previous Version | Text Only | Print | Product List | Glossary On
Versions: 1 2 3 4 5 6 7 8 9 10 11 12 13 14 15 16 17 18 19 20 21 22 23 24 25 26 27 28
000
ASUS41 KPHI 301712
RWRPHI

REGIONAL WEATHER ROUNDUP
NATIONAL WEATHER SERVICE MOUNT HOLLY NJ
100 PM EDT THU MAR 30 2017

NOTE:  "FAIR" INDICATES FEW OR NO CLOUDS BELOW 12,000 FEET WITH NO
SIGNIFICANT WEATHER AND/OR OBSTRUCTIONS TO VISIBILITY.

 * = STATION DOES NOT REPORT PRECIPITATION (E.G. RAIN, SNOW, ETC.)
        OR FOG.

NJZ015>026-301800-
SOUTHERN NEW JERSEY

CITY           SKY/WX    TMP DP  RH WIND       PRES   REMARKS
POMONA         CLOUDY    48  27  44 MISG      30.24F
WILDWOOD*      MOSUNNY   46  30  53 SE8       30.26F
MILLVILLE      SUNNY     51  27  39 VRB6      30.22F
WRIGHTSTOWN    PTSUNNY   48  23  37 VRB5      30.20F
MOUNT HOLLY    CLOUDY    46  21  37 W3        30.23F
TRENTON        CLOUDY    47  23  38 W6        30.22F

$$
NJZ001>014-301800-
NORTHERN NEW JERSEY

CITY           SKY/WX    TMP DP  RH WIND       PRES   REMARKS
SUSSEX         CLOUDY    46  27  47 VRB3      30.20F
ANDOVER*         N/A     47  23  38 CALM      30.20F
MORRISTOWN     PTSUNNY   50  21  32 CALM      30.21F
NEWARK         PTSUNNY   49  23  36 E9        30.21F
TETERBORO      SUNNY     49  27  42 E7        30.20F
CALDWELL       SUNNY     48  25  40 E3        30.21F
SOMERVILLE     CLOUDY    48  25  40 VRB3      30.20F
ALLAIRE*       SUNNY     45  26  47 E10G16    30.24S
TOMS RIVER*    CLOUDY    48  29  47 SE8       30.23F

$$
PAZ043-044-047-054-055-060>062-066>071-301800-
EASTERN PENNSYLVANIA

CITY           SKY/WX    TMP DP  RH WIND       PRES   REMARKS
PHILADELPHIA   CLOUDY    48  23  37 SW3       30.24F
NORTH PHILA    CLOUDY    47  22  37 S3        30.24F
BLUE BELL*     CLOUDY    45  27  49 CALM      30.22F
DOYLESTOWN     CLOUDY    44  24  45 VRB5      30.21F
QUAKERTOWN*    CLOUDY    45  25  45 SW6       30.22F
PERKASIE*      CLOUDY    43  23  45 S6        30.22F
POTTSTOWN      CLOUDY    44  23  43 CALM      30.23F
LANCASTER      CLOUDY    48  30  49 S8        30.21F
COATESVILLE    CLOUDY    46  25  42 S5        30.22F
READING        CLOUDY    48  28  46 SW6       30.20F
ALLENTOWN      CLOUDY    47  23  38 CALM      30.20F
MOUNT POCONO   PTSUNNY   43  23  45 VRB3      30.14F
HAZLETON       PTSUNNY   46  23  39 SE6       30.18F
LEHIGHTON      PTSUNNY   45  21  39 CALM      30.20F
WILKES BARRE   CLOUDY    45  25  45 VRB3      30.17F

$$
DEZALL-MDZ008-012-015-019-020-301800-
DELAWARE AND EASTERN MARYLAND

CITY           SKY/WX    TMP DP  RH WIND       PRES   REMARKS
WILMINGTON     CLOUDY    49  27  42 VRB7      30.24F
DOVER          CLOUDY    47  34  60 E8        30.23F
GEORGETOWN     PTSUNNY   50  32  50 VRB6      30.24F
EASTON         CLOUDY    50  28  43 SE5       30.27F
ABERDEEN       CLOUDY    46  27  47 SE7       30.24F
PATUXENT       CLOUDY    50  41  71 SE8       30.23F
OCEAN CITY     PTSUNNY   47  34  60 E9        30.26S
WALLOPS ISLAND CLOUDY    48  38  68 E9        30.25F
CAMBRIDGE      CLOUDY    50  34  53 E6        30.23F
SALISBURY      CLOUDY    51  34  52 E8        30.22F

$$
PAZ001-021-NYZ056-072-MDZ011-DCZ001-301800-
OTHER NEARBY LOCATIONS

CITY           SKY/WX    TMP DP  RH WIND       PRES   REMARKS
HARRISBURG     CLOUDY    46  28  49 SE6       30.20F
STATE COLLEGE  CLOUDY    43  25  49 E12       30.13F
WILLIAMSPORT   LGT RAIN  40  27  59 VRB5      30.20F
BINGHAMTON     SUNNY     40  21  46 VRB5      30.15F
NEW YORK CITY  SUNNY     49  23  36 E3        30.23F
BALTIMORE      CLOUDY    46  29  51 S7        30.22F
WASHINGTON DC  CLOUDY    53  32  44 E3        30.21F

$$




USA.gov is the U.S. government's official web portal to all federal, state and local government web resources and services.